Notices

What's New in latest Release from April 7th, 2021:

- Updated Glossary, including Speed of Maximum Gust, and Total Hourly Precipitation

- Updated national and regional climate services offices contacts and prices information

- Addition of station inventory lists for 1981-2010, 1971-2000, and 1961-1990 Normals.

If you haven't already, please take our survey and provide feedback about our website: https://eccc.sondage-survey.ca/f/LanguageSelection.aspx?s=442ca660-fcf1-47c0-95a9-59707d6fd709

Hourly Data Report for November 30, 2019

MIRAMICHI RCS
NEW BRUNSWICK
Current Station Operator: ECCC - MSC

47°00'34.000" N
65°27'54.000" W
33.00 m
8100989
71744
ACQ

Download Data

Hourly Data (November 2019)
Hourly Data Report for November 30, 2019
TIME
LST
Temp Definition
°C
Dew Point Definition
°C
Rel Hum Definition
%
Precip. Amount Definition
mm

Wind Dir Definition
10's deg

Wind Spd Definition
km/h
Visibility Definition
km
Stn Press Definition
kPa
Hmdx Definition


Wind Chill Definition


Weather Definition


00:00 -5.0 -10.9 63 0.0 32 19   100.10   -11 LegendNANA
01:00 -5.1 -11.1 63 0.0 32 21   100.00   -12 LegendNANA
02:00 -5.1 -11.1 63 0.0 32 18   99.98   -11 LegendNANA
03:00 -5.2 -11.1 63 0.0 32 18   99.97   -11 LegendNANA
04:00 -5.0 -10.9 63 0.0 32 18   99.91   -11 LegendNANA
05:00 -4.9 -10.5 65 0.0 31 17   99.90   -11 LegendNANA
06:00 -5.1 -9.5 71 0.0 31 20   99.86   -12 LegendNANA
07:00 -5.1 -9.8 70 0.0 31 15   99.87   -11 LegendNANA
08:00 -5.2 -10.0 69 0.0 30 16   99.86   -11 LegendNANA
09:00 -5.0 -10.0 68 0.0 31 19   99.80   -11 LegendNANA
10:00 -4.3 -9.7 66 0.0 31 19   99.79   -10 LegendNANA
11:00 -2.9 -9.8 59 0.0 32 17   99.75   -8 LegendNANA
12:00 -1.9 -9.6 56 0.0 32 24   99.70   -8 LegendNANA
13:00 -1.3 -9.0 56 0.0 32 21   99.64   -7 LegendNANA
14:00 -0.7 -8.7 55 0.0 32 19   99.65   -6 LegendNANA
15:00 -0.9 -8.9 55 0.0 33 21   99.69   -7 LegendNANA
16:00 -0.8 -9.0 54 0.0 32 22   99.71   -7 LegendNANA
17:00 -1.3 -9.2 55 0.0 32 19   99.74   -7 LegendNANA
18:00 -2.8 -9.6 60 0.0 32 18   99.83   -8 LegendNANA
19:00 -4.2 -10.4 62 0.0 32 17   99.91   -10 LegendNANA
20:00 -5.0 -11.3 62 0.0 31 16   99.95   -11 LegendNANA
21:00 -5.4 -11.6 62 0.0 30 17   99.99   -11 LegendNANA
22:00 -5.5 -12.0 60 0.0 31 15   100.03   -11 LegendNANA
23:00 -5.9 -12.4 60 0.0 31 17   100.07   -12 LegendNANA

Notes on Data Quality.

Legend

  • E = Estimated
  • M = Missing
  • NA = Not Available*
  • [empty] = Indicates an unobserved value
Date modified: